User: anonymous   Login
Location: Theydon Bois
(51.6750°N, 0.1050°E)
Time: 14:48:17
(UTC+01:00)
Language:

Cosmos 1766 Rocket - Orbit

View from above orbital plane
View from above orbital plane
View from above satellite
View from above satellite

Ground track
Ground track

The orbit data is extracted from the following two-line orbital elements,

1 16882U 86055B   17294.94880308 +.00000090 +00000-0 +80885-5 0  9995
2 16882 082.5183 114.8909 0019672 353.6377 117.7077 14.83135702665589
Epoch (UTC): 21 October 2017 22:46:16
Eccentricity: 0.0019672
inclination: 82.5183°
perigee height: 605 km
apogee height: 633 km
right ascension of ascending node: 114.8909°
argument of perigee: 353.6377°
revolutions per day: 14.83135702
mean anomaly at epoch: 117.7077°
orbit number at epoch: 66558

The dashed part of the orbit path shows where the satellite is in the earth's shadow,  

DLR